Precipitable_Water
0.38 0.33 0.29 0.34 0.37 0.31 0.27 0.28 0.37 0.42 0.45 0.40 0.32 0.42 0.58 0.65 0.72 0.62 0.57 0.60 0.60 0.69 0.81 0.85 0.85 0.89 0.85 0.84 0.92 0.93 0.96 1.01 1.05 1.00 0.95 1.00 0.89 0.94 0.94 0.97 0.97 1.11 1.10 1.09
0.39 0.35 0.39 0.42 0.41 0.31 0.27 0.25 0.29 0.34 0.43 0.35 0.28 0.35 0.54 0.65 0.66 0.57 0.56 0.58 0.59 0.64 0.72 0.80 0.81 0.85 0.85 0.86 0.86 0.88 0.94 1.06 1.13 1.09 1.01 0.95 0.85 0.80 0.85 0.97 1.05 1.21 1.26 1.19
0.37 0.41 0.50 0.39 0.34 0.25 0.25 0.26 0.32 0.35 0.42 0.39 0.32 0.28 0.42 0.59 0.66 0.59 0.59 0.62 0.62 0.58 0.62 0.72 0.82 0.83 0.88 0.91 0.90 0.93 0.94 0.97 1.05 1.11 0.99 1.05 0.94 0.87 0.78 0.87 1.01 1.11 1.18 1.23
0.41 0.43 0.42 0.39 0.29 0.27 0.26 0.35 0.35 0.35 0.33 0.27 0.38 0.29 0.36 0.42 0.56 0.59 0.54 0.55 0.59 0.56 0.64 0.72 0.77 0.83 0.88 0.89 0.95 0.96 0.99 0.98 1.00 1.10 1.12 1.00 0.98 0.85 0.87 0.88 1.10 1.14 1.15 1.24
0.39 0.40 0.35 0.35 0.31 0.34 0.30 0.44 0.41 0.33 0.29 0.31 0.36 0.33 0.35 0.42 0.43 0.57 0.58 0.60 0.62 0.66 0.63 0.68 0.72 0.80 0.86 0.90 0.92 0.93 0.94 0.95 1.01 1.04 1.19 1.14 1.10 0.95 1.01 1.08 1.08 1.12 1.22 1.24
0.41 0.46 0.40 0.39 0.37 0.38 0.39 0.37 0.40 0.37 0.32 0.26 0.33 0.33 0.39 0.40 0.49 0.47 0.58 0.66 0.65 0.67 0.69 0.72 0.75 0.82 0.85 0.92 0.91 0.90 0.91 0.95 1.06 1.09 1.06 1.15 1.20 1.11 1.11 1.22 1.19 1.24 1.31 1.28
0.40 0.37 0.42 0.41 0.34 0.38 0.36 0.33 0.27 0.27 0.26 0.23 0.34 0.32 0.37 0.40 0.44 0.44 0.47 0.56 0.66 0.72 0.71 0.72 0.74 0.74 0.80 0.86 0.88 0.91 0.94 0.95 1.06 1.13 1.14 1.16 1.19 1.23 1.12 1.15 1.14 1.20 1.23 1.30
0.35 0.29 0.35 0.42 0.35 0.34 0.34 0.32 0.30 0.27 0.28 0.34 0.41 0.30 0.32 0.42 0.47 0.43 0.41 0.43 0.60 0.68 0.71 0.72 0.78 0.80 0.77 0.78 0.89 0.92 0.94 0.95 1.05 1.07 1.16 1.20 1.04 1.06 1.10 1.18 1.19 1.12 1.10 1.11
0.34 0.33 0.40 0.41 0.39 0.36 0.35 0.29 0.36 0.41 0.44 0.38 0.36 0.36 0.40 0.40 0.36 0.37 0.39 0.43 0.48 0.47 0.69 0.74 0.78 0.85 0.86 0.85 0.84 0.93 0.96 0.99 1.04 1.08 1.14 1.17 1.03 1.14 1.19 1.24 1.18 1.09 1.09 1.21
0.38 0.35 0.40 0.41 0.42 0.39 0.34 0.43 0.30 0.33 0.27 0.26 0.26 0.25 0.29 0.36 0.36 0.36 0.33 0.40 0.53 0.59 0.59 0.64 0.76 0.81 0.87 0.94 0.99 0.98 1.00 1.03 1.10 1.10 1.17 1.23 1.19 1.13 1.20 1.21 1.16 1.11 1.15 1.27
0.40 0.39 0.38 0.40 0.35 0.32 0.33 0.33 0.41 0.39 0.32 0.25 0.22 0.30 0.44 0.43 0.39 0.37 0.38 0.39 0.42 0.49 0.57 0.57 0.64 0.78 0.89 0.99 1.05 1.08 1.04 1.09 1.16 1.19 1.22 1.25 1.28 1.25 1.26 1.21 1.20 1.14 1.20 1.15
0.41 0.39 0.35 0.38 0.41 0.42 0.39 0.35 0.40 0.31 0.31 0.41 0.32 0.29 0.46 0.47 0.43 0.41 0.41 0.42 0.45 0.47 0.53 0.59 0.58 0.65 0.78 0.87 1.00 1.11 1.15 1.17 1.30 1.26 1.30 1.31 1.28 1.26 1.18 1.17 1.20 1.21 1.14 1.05
0.42 0.36 0.34 0.33 0.43 0.47 0.35 0.40 0.37 0.36 0.35 0.30 0.30 0.34 0.46 0.43 0.40 0.40 0.39 0.40 0.44 0.45 0.46 0.56 0.64 0.64 0.65 0.69 0.78 0.97 1.09 1.12 1.21 1.23 1.23 1.27 1.20 1.13 1.11 1.15 1.19 1.13 1.08 1.06
0.50 0.39 0.34 0.31 0.36 0.41 0.34 0.38 0.43 0.41 0.37 0.37 0.36 0.35 0.38 0.40 0.44 0.44 0.43 0.43 0.45 0.47 0.46 0.44 0.63 0.70 0.72 0.71 0.76 0.83 0.91 0.99 1.08 1.13 1.10 1.11 1.09 1.11 1.08 1.07 1.07 1.06 1.05 0.99
0.45 0.39 0.37 0.37 0.38 0.41 0.38 0.35 0.36 0.35 0.35 0.31 0.32 0.31 0.35 0.38 0.48 0.46 0.50 0.50 0.48 0.46 0.45 0.43 0.45 0.74 0.80 0.79 0.83 0.86 0.90 0.94 1.04 1.12 1.06 1.01 1.06 1.07 1.07 1.04 1.02 1.00 0.95 0.93
0.45 0.37 0.39 0.37 0.37 0.38 0.42 0.45 0.35 0.33 0.30 0.31 0.33 0.33 0.37 0.39 0.43 0.42 0.39 0.38 0.42 0.43 0.44 0.46 0.41 0.71 0.82 0.83 0.86 0.83 0.84 0.90 0.97 0.92 0.96 1.01 1.00 1.00 0.99 0.94 0.91 0.90 0.85 0.76
0.42 0.39 0.32 0.30 0.37 0.36 0.31 0.40 0.37 0.37 0.35 0.33 0.30 0.34 0.36 0.37 0.42 0.38 0.37 0.40 0.40 0.41 0.47 0.54 0.56 0.78 0.86 0.89 0.91 0.86 0.87 0.92 0.91 0.93 0.95 0.94 0.92 0.88 0.86 0.82 0.72 0.67 0.63 0.64
0.45 0.39 0.38 0.34 0.39 0.26 0.35 0.44 0.41 0.35 0.32 0.33 0.33 0.34 0.37 0.38 0.41 0.39 0.41 0.40 0.43 0.49 0.54 0.57 0.69 0.75 0.87 0.87 0.88 0.89 0.89 0.89 0.89 0.86 0.85 0.82 0.77 0.70 0.65 0.62 0.60 0.59 0.60 0.58
0.55 0.46 0.39 0.34 0.32 0.38 0.37 0.42 0.38 0.32 0.30 0.33 0.31 0.33 0.36 0.38 0.43 0.41 0.45 0.45 0.46 0.49 0.53 0.59 0.66 0.75 0.77 0.78 0.81 0.82 0.80 0.78 0.73 0.70 0.68 0.66 0.64 0.60 0.58 0.55 0.55 0.56 0.56 0.57
0.51 0.53 0.45 0.40 0.30 0.26 0.39 0.41 0.41 0.39 0.28 0.36 0.36 0.35 0.36 0.39 0.34 0.35 0.43 0.41 0.44 0.52 0.56 0.56 0.60 0.63 0.67 0.69 0.72 0.67 0.64 0.64 0.61 0.62 0.62 0.61 0.58 0.53 0.52 0.54 0.56 0.58 0.59 0.57
0.42 0.47 0.42 0.40 0.37 0.37 0.42 0.40 0.42 0.29 0.28 0.38 0.41 0.39 0.39 0.37 0.36 0.38 0.41 0.40 0.46 0.51 0.54 0.55 0.56 0.56 0.59 0.61 0.60 0.56 0.57 0.56 0.60 0.60 0.57 0.55 0.54 0.55 0.57 0.57 0.55 0.53 0.50 0.49
0.35 0.42 0.41 0.44 0.39 0.32 0.49 0.44 0.37 0.40 0.39 0.42 0.42 0.51 0.47 0.44 0.44 0.42 0.43 0.41 0.43 0.46 0.50 0.54 0.55 0.56 0.59 0.61 0.59 0.56 0.55 0.58 0.58 0.56 0.53 0.53 0.54 0.52 0.51 0.47 0.45 0.42 0.43 0.42
0.33 0.40 0.46 0.48 0.42 0.57 0.53 0.50 0.54 0.50 0.47 0.46 0.53 0.56 0.55 0.51 0.48 0.48 0.45 0.44 0.42 0.46 0.50 0.55 0.56 0.56 0.58 0.60 0.60 0.56 0.56 0.57 0.55 0.52 0.48 0.45 0.45 0.46 0.47 0.46 0.44 0.43 0.43 0.40
0.34 0.49 0.41 0.40 0.53 0.60 0.68 0.66 0.58 0.57 0.57 0.57 0.58 0.63 0.64 0.57 0.56 0.55 0.52 0.48 0.43 0.47 0.51 0.55 0.56 0.55 0.55 0.58 0.59 0.58 0.59 0.58 0.51 0.46 0.46 0.47 0.47 0.47 0.46 0.43 0.39 0.40 0.38 0.35
0.32 0.31 0.39 0.39 0.47 0.51 0.55 0.66 0.71 0.65 0.64 0.63 0.63 0.64 0.62 0.61 0.61 0.59 0.54 0.50 0.46 0.49 0.53 0.56 0.56 0.55 0.55 0.56 0.56 0.58 0.56 0.52 0.49 0.49 0.49 0.50 0.48 0.44 0.41 0.40 0.37 0.36 0.35 0.33
0.36 0.29 0.33 0.41 0.50 0.47 0.52 0.69 0.72 0.64 0.58 0.59 0.64 0.63 0.64 0.65 0.66 0.65 0.59 0.56 0.50 0.50 0.54 0.55 0.57 0.57 0.55 0.54 0.53 0.53 0.53 0.52 0.50 0.51 0.53 0.51 0.46 0.43 0.41 0.38 0.35 0.36 0.35 0.34
Wind_Speed
15 13 14 15 14 15 14 14 11 10 7 8 9 7 5 6 6 3 3 4 6 6 8 9 12 13 14 15 16 18 18 19 18 19 18 15 14 14 15 15 16 17 17 18
17 18 15 16 14 12 13 14 13 8 7 8 11 10 6 5 8 5 4 5 6 7 9 10 12 13 13 14 14 16 16 16 16 15 14 12 13 13 14 15 16 16 17 17
19 16 14 13 11 11 11 13 10 10 10 11 12 12 3 7 7 5 5 5 6 8 9 10 11 12 12 13 14 14 15 15 15 13 13 12 12 12 13 14 15 17 18 18
21 20 15 13 13 12 12 9 11 10 10 11 4 12 9 11 7 7 7 6 7 9 11 11 12 13 13 14 14 15 15 15 15 14 13 13 12 12 13 14 15 17 19 20
22 21 18 14 14 13 12 6 9 10 12 13 9 9 3 9 12 12 8 9 9 10 11 12 13 14 15 14 16 15 16 16 15 14 14 14 13 13 14 15 16 18 20 21
24 21 19 17 15 14 11 11 11 12 11 11 13 11 10 9 11 13 13 11 12 13 13 13 14 14 15 16 16 17 17 17 17 16 16 15 15 15 15 15 18 21 23 24
25 25 21 17 18 15 13 11 9 8 9 9 10 9 7 7 11 8 12 12 13 14 15 14 15 16 17 17 18 18 19 18 18 18 18 17 14 18 19 18 16 18 22 24
23 22 25 18 19 16 15 15 10 7 6 5 5 7 6 6 5 4 6 7 9 15 16 16 17 18 18 19 19 19 19 20 20 20 19 19 19 17 19 21 20 19 18 15
23 26 21 23 19 20 17 17 16 8 10 11 7 6 13 8 7 7 8 8 10 12 17 18 18 20 21 20 20 21 21 21 22 23 23 24 20 19 21 21 21 21 21 20
24 19 24 23 23 21 21 16 15 15 9 9 11 13 7 11 9 6 7 6 5 9 11 16 20 21 23 24 24 22 23 24 24 24 25 26 26 22 21 21 21 22 22 21
29 22 18 21 21 21 19 21 16 18 15 13 10 7 9 9 4 7 6 7 8 6 8 11 14 16 23 25 25 26 23 24 24 24 25 26 27 25 24 23 22 23 22 22
34 19 20 23 22 21 23 22 20 17 14 12 12 14 7 11 11 11 12 12 10 8 8 9 10 13 16 17 18 22 24 24 23 23 24 23 25 25 24 24 23 22 21 22
32 29 22 24 22 23 23 21 21 21 19 19 13 13 12 13 13 15 13 14 13 11 12 11 11 12 14 15 18 19 20 21 21 22 22 21 20 21 21 21 21 22 23 23
23 30 28 24 23 21 23 22 23 21 17 18 19 18 19 16 15 13 13 16 17 13 12 13 13 14 14 15 17 18 20 20 20 20 19 18 18 19 19 20 21 22 23 24
28 30 31 28 26 24 24 24 26 25 22 21 19 21 20 17 11 13 12 13 12 15 16 16 16 15 15 15 16 17 15 15 15 15 16 17 17 18 19 20 22 23 24 24
29 28 29 28 28 27 23 26 25 24 25 24 23 22 20 18 14 17 17 17 16 17 18 17 18 18 16 16 16 17 17 17 17 16 16 16 17 18 20 21 21 21 22 23
28 26 27 28 29 27 29 28 25 23 22 20 21 20 20 18 19 18 18 18 19 17 15 17 18 17 18 18 17 17 18 18 18 17 18 18 19 19 19 20 20 21 22 22
23 28 26 23 21 34 25 26 25 26 24 23 22 21 19 20 20 20 15 15 15 16 17 17 17 18 18 18 18 18 18 18 18 18 19 18 18 19 20 20 21 21 22 23
22 22 23 25 28 27 28 26 22 21 24 25 25 25 22 21 15 15 15 17 17 17 17 17 17 18 18 18 18 18 17 17 17 17 17 18 19 19 20 20 20 22 23 24
32 25 24 20 27 32 26 28 22 23 26 20 22 21 21 20 17 17 17 16 16 16 16 17 16 17 18 18 18 17 17 17 17 18 18 18 19 19 19 20 21 23 25 26
26 29 27 26 23 24 24 26 26 28 18 17 19 23 20 17 18 16 16 16 17 17 16 16 16 16 16 17 17 17 17 17 17 17 18 18 19 20 21 22 24 24 25 25
24 26 26 25 24 28 18 22 28 22 21 21 20 20 18 17 17 17 17 17 18 18 18 17 17 16 17 17 17 17 17 17 18 18 19 20 21 22 23 24 25 25 26 26
24 28 23 23 24 22 24 26 20 19 19 21 19 22 23 20 20 19 19 19 19 19 19 19 18 18 18 19 19 18 18 19 19 20 21 21 22 23 25 26 26 26 27 28
25 26 24 22 30 26 21 22 25 24 23 22 21 21 21 21 21 21 20 20 20 20 21 20 20 20 20 20 20 21 21 21 21 21 22 23 24 25 26 26 27 27 29 29
28 26 28 26 26 25 28 24 22 22 23 22 21 21 22 22 23 22 22 22 22 22 22 22 22 22 22 22 22 23 23 23 23 24 24 25 26 26 27 27 29 29 31 32
27 29 27 25 26 24 22 19 20 23 26 28 25 24 24 24 24 24 23 23 23 24 23 23 24 23 23 23 23 24 25 26 26 26 26 27 28 29 29 30 31 31 32 33
Wind_Direction
240 249 252 257 256 267 275 283 259 237 258 269 291 307 232 308 243 155 126 133 149 141 137 143 140 144 142 141 146 148 151 156 159 162 171 184 189 197 205 210 215 220 223 226
240 239 253 264 283 279 278 263 266 277 247 275 293 284 226 219 223 191 169 156 165 163 160 157 159 159 161 158 160 162 165 167 170 177 187 197 203 209 213 220 224 223 228 231
234 242 256 253 266 261 255 249 261 277 280 276 274 283 173 235 207 186 204 187 186 182 179 179 177 177 177 179 178 178 179 183 186 190 196 205 209 216 221 227 230 231 235 237
238 239 251 253 254 243 254 254 259 259 269 269 279 273 261 236 217 231 207 199 198 195 192 196 194 194 193 193 191 193 193 194 199 202 206 213 217 224 229 235 237 242 239 241
233 237 240 241 244 242 250 247 266 271 267 265 252 265 285 227 234 217 219 214 211 206 201 199 204 204 202 200 198 201 203 206 209 213 221 228 226 238 242 243 245 247 250 249
237 236 236 236 240 243 249 249 262 262 251 253 259 249 256 266 247 254 220 223 224 215 209 208 211 210 211 211 211 213 215 218 220 224 231 234 239 244 249 250 254 259 256 252
232 235 230 229 232 230 231 244 251 243 235 242 256 264 241 208 217 258 206 226 224 221 217 218 216 217 218 219 220 223 225 228 229 230 235 235 245 260 254 256 269 270 279 243
230 226 228 222 230 225 227 229 222 228 251 287 296 244 218 202 214 232 256 254 232 228 224 226 227 222 224 225 225 227 230 233 236 238 238 242 257 268 258 258 267 274 277 265
229 231 228 224 222 229 225 224 237 226 248 243 240 249 252 214 232 249 244 244 244 245 234 233 234 230 230 229 231 232 235 239 242 243 243 245 259 265 263 263 267 274 274 273
232 233 229 220 220 223 231 229 237 236 239 246 247 252 231 228 234 229 246 240 237 256 257 245 238 237 236 237 236 235 239 241 245 247 247 251 253 265 268 263 269 273 274 274
229 237 237 213 214 224 225 229 229 243 237 249 257 250 233 251 223 229 241 241 256 265 258 256 250 245 241 239 236 238 241 246 250 250 250 253 255 259 266 264 267 274 272 274
223 229 228 228 223 228 233 226 230 228 227 243 242 238 250 260 259 255 249 257 249 260 268 252 250 246 243 241 241 237 244 247 250 248 251 255 257 260 262 264 267 272 272 275
217 228 231 227 232 224 226 226 232 237 238 240 232 243 250 267 261 265 258 247 246 249 260 259 251 248 244 243 241 241 245 252 253 250 251 254 258 258 263 265 267 272 276 279
218 224 228 229 225 227 224 226 229 235 241 250 247 249 258 262 264 252 255 250 246 249 262 258 254 252 248 246 245 245 249 251 252 248 249 254 259 259 265 267 271 275 278 281
221 230 227 234 232 228 227 228 231 234 239 240 245 253 254 261 239 258 253 246 254 257 264 262 258 249 245 248 246 243 244 246 244 245 249 254 256 261 266 270 276 278 280 283
223 228 225 234 230 236 230 242 233 235 240 245 246 250 254 254 251 247 253 257 257 262 262 261 255 248 245 247 245 244 242 245 248 249 254 259 263 265 269 274 276 279 281 284
222 222 224 230 230 237 241 227 236 236 244 247 251 253 253 255 258 261 262 258 261 260 261 264 256 244 247 248 247 246 244 244 248 252 256 261 265 269 273 276 279 283 284 285
220 222 224 226 226 233 238 237 243 243 249 254 258 254 253 253 259 264 260 262 259 256 260 262 254 248 249 249 246 246 245 246 249 254 258 262 264 269 273 277 281 283 285 288
221 225 227 224 230 242 236 232 238 242 250 245 251 254 256 255 255 252 259 267 262 259 259 258 253 247 245 244 242 240 242 245 249 252 256 262 266 270 274 277 279 283 286 289
221 230 231 230 230 238 235 233 245 241 250 246 250 253 251 247 249 255 258 261 259 255 254 252 249 243 241 239 236 237 242 246 251 255 260 264 268 271 275 278 282 286 288 290
218 223 233 232 238 243 235 232 235 241 244 244 251 249 247 247 255 259 255 258 255 252 250 248 243 238 234 232 232 237 243 248 253 257 262 266 270 273 277 281 284 286 289 290
221 220 226 230 236 242 238 235 227 238 237 244 259 248 249 252 252 256 254 255 252 250 247 242 238 236 234 233 235 240 246 250 255 259 264 267 271 276 279 283 286 287 289 290
223 219 228 231 231 253 241 238 235 239 246 251 261 252 252 250 253 255 257 255 251 247 244 239 237 236 238 239 241 245 250 254 257 261 266 270 275 279 282 285 286 287 290 292
228 216 226 230 241 250 250 245 239 244 251 255 256 258 255 250 253 255 256 255 250 245 243 240 238 240 242 244 247 250 253 256 260 264 269 273 278 281 284 286 287 288 291 293
228 231 232 240 238 245 247 250 253 242 248 252 254 259 263 258 254 256 256 253 249 246 243 242 242 244 245 247 251 254 256 259 263 267 272 277 279 282 284 287 289 289 291 292
227 232 237 240 244 247 247 245 247 245 251 255 253 260 263 262 256 255 256 254 249 246 244 243 244 246 248 251 255 258 260 263 266 270 274 277 279 283 285 285 288 291 291 293